timestamp,wind_dir_avg,wind_spd_avg,wind_spd_max_dir,wind_spd_gust,battery_voltage,lat,long
2021-09-27 00:04:00+00:00,211.0,5.07,207.0,5.95,12.65,47.59359,-54.27349
2021-09-27 00:14:01+00:00,214.0,4.26,217.0,4.98,12.65,47.59359,-54.27349
2021-09-27 00:24:01+00:00,188.0,4.32,186.0,4.8,12.65,47.59359,-54.27349
2021-09-27 00:34:01+00:00,172.0,5.01,178.0,6.1,12.65,47.59359,-54.27349
2021-09-27 00:44:01+00:00,175.0,7.09,177.0,7.75,12.65,47.59359,-54.27349
2021-09-27 00:54:01+00:00,173.0,7.23,175.0,8.11,12.65,47.59359,-54.27349
2021-09-27 01:04:01+00:00,177.0,6.94,177.0,8.03,12.65,47.59359,-54.27349
2021-09-27 01:14:01+00:00,177.0,5.92,179.0,6.53,12.65,47.59359,-54.27349
2021-09-27 01:24:01+00:00,176.0,5.61,173.0,6.07,12.65,47.59359,-54.27349
2021-09-27 01:34:01+00:00,175.0,4.42,170.0,5.23,12.65,47.59359,-54.27349
2021-09-27 01:44:01+00:00,183.0,3.71,183.0,4.31,12.65,47.59359,-54.27349
2021-09-27 01:54:01+00:00,180.0,4.07,184.0,5.42,12.65,47.59359,-54.27349
2021-09-27 02:04:01+00:00,179.0,5.56,180.0,6.28,12.65,47.59359,-54.27349
2021-09-27 02:14:01+00:00,170.0,5.12,173.0,6.11,12.57,47.59359,-54.27349
2021-09-27 02:24:01+00:00,169.0,5.22,165.0,6.27,12.57,47.59359,-54.27349
2021-09-27 02:34:01+00:00,169.0,5.88,163.0,8.11,12.57,47.59359,-54.27349
2021-09-27 02:44:01+00:00,160.0,7.7,159.0,8.93,12.57,47.59359,-54.27349
2021-09-27 02:54:01+00:00,157.0,7.63,155.0,8.87,12.57,47.59359,-54.27349
2021-09-27 03:04:01+00:00,157.0,8.47,155.0,9.79,12.57,47.59359,-54.27349
2021-09-27 03:14:01+00:00,163.0,8.52,165.0,9.86,12.57,47.59359,-54.27349
2021-09-27 03:24:01+00:00,161.0,7.76,157.0,9.04,12.57,47.59359,-54.27349
2021-09-27 03:34:01+00:00,159.0,8.21,158.0,9.11,12.57,47.59359,-54.27349
2021-09-27 03:44:01+00:00,165.0,9.96,167.0,11.24,12.57,47.59359,-54.27349
2021-09-27 03:54:01+00:00,164.0,10.09,168.0,11.88,12.57,47.59359,-54.27349
2021-09-27 04:04:01+00:00,164.0,9.48,166.0,10.71,12.57,47.59359,-54.27349
2021-09-27 04:14:01+00:00,168.0,9.15,170.0,10.35,12.57,47.59359,-54.27349
2021-09-27 04:24:01+00:00,163.0,9.21,159.0,10.05,12.57,47.59359,-54.27349
2021-09-27 04:34:01+00:00,168.0,9.11,165.0,10.03,12.57,47.59359,-54.27349
2021-09-27 04:44:01+00:00,164.0,7.77,165.0,8.79,12.57,47.59359,-54.27349
2021-09-27 04:54:01+00:00,166.0,8.24,169.0,9.14,12.57,47.59359,-54.27349
2021-09-27 05:04:01+00:00,163.0,8.32,159.0,9.2,12.57,47.59359,-54.27349
2021-09-27 05:14:00+00:00,160.0,7.77,166.0,8.73,12.57,47.59359,-54.27349
2021-09-27 05:24:00+00:00,161.0,8.25,161.0,9.6,12.57,47.59359,-54.27349
2021-09-27 05:34:00+00:00,152.0,9.17,148.0,10.77,12.57,47.59359,-54.27349
2021-09-27 05:44:00+00:00,158.0,8.1,156.0,9.71,12.57,47.59359,-54.27349
2021-09-27 05:54:00+00:00,152.0,8.58,143.0,9.78,12.57,47.59359,-54.27349
2021-09-27 06:04:00+00:00,150.0,7.53,149.0,9.31,12.57,47.59359,-54.27349
2021-09-27 06:14:00+00:00,147.0,8.18,152.0,8.8,12.57,47.59359,-54.27349
2021-09-27 06:24:00+00:00,148.0,7.95,146.0,9.0,12.57,47.59359,-54.27349
2021-09-27 06:34:00+00:00,150.0,6.91,155.0,7.99,12.57,47.59359,-54.27349
2021-09-27 06:44:00+00:00,149.0,8.57,147.0,10.12,12.57,47.59359,-54.27349
2021-09-27 06:54:00+00:00,147.0,8.26,149.0,9.22,12.57,47.59359,-54.27349
2021-09-27 07:04:00+00:00,157.0,8.88,156.0,9.7,12.57,47.59359,-54.27349
2021-09-27 07:14:01+00:00,166.0,9.28,167.0,10.74,12.49,47.59359,-54.27349
2021-09-27 07:24:01+00:00,161.0,9.34,164.0,10.48,12.49,47.59359,-54.27349
2021-09-27 07:34:01+00:00,160.0,10.24,161.0,11.35,12.49,47.59359,-54.27349
2021-09-27 07:44:01+00:00,157.0,9.71,157.0,11.31,12.49,47.59359,-54.27349
2021-09-27 07:54:01+00:00,155.0,10.77,151.0,12.09,12.49,47.59359,-54.27349
2021-09-27 08:04:01+00:00,159.0,9.63,159.0,11.44,12.49,47.59359,-54.27349
2021-09-27 08:14:01+00:00,158.0,10.21,159.0,12.43,12.49,47.59359,-54.27349
2021-09-27 08:24:01+00:00,158.0,9.66,156.0,11.1,12.49,47.59359,-54.27349
2021-09-27 08:34:01+00:00,152.0,8.48,151.0,9.61,12.49,47.59359,-54.27349
2021-09-27 08:44:01+00:00,147.0,9.88,151.0,11.79,12.49,47.59359,-54.27349
2021-09-27 08:54:01+00:00,156.0,9.86,158.0,11.13,12.49,47.59359,-54.27349
2021-09-27 09:04:01+00:00,161.0,10.7,168.0,14.09,12.49,47.59359,-54.27349
2021-09-27 09:14:01+00:00,157.0,10.23,152.0,11.86,12.41,47.59359,-54.27349
2021-09-27 09:24:01+00:00,162.0,10.64,163.0,12.88,12.41,47.59359,-54.27349
2021-09-27 09:34:01+00:00,153.0,9.42,150.0,10.45,12.41,47.59359,-54.27349
2021-09-27 09:44:01+00:00,150.0,7.21,142.0,8.59,12.41,47.59359,-54.27349
2021-09-27 09:54:01+00:00,151.0,7.37,150.0,8.14,12.41,47.59359,-54.27349
2021-09-27 10:04:01+00:00,146.0,4.71,145.0,5.66,12.41,47.59359,-54.27349
2021-09-27 10:14:01+00:00,135.0,6.54,135.0,8.51,12.41,47.59359,-54.27349
2021-09-27 10:24:01+00:00,159.0,11.04,163.0,12.5,12.41,47.59359,-54.27349
2021-09-27 10:34:01+00:00,162.0,9.52,158.0,11.41,12.41,47.59359,-54.27349
2021-09-27 10:44:01+00:00,162.0,12.47,161.0,13.86,12.41,47.59359,-54.27349
2021-09-27 10:54:01+00:00,157.0,13.79,157.0,15.8,12.41,47.59359,-54.27349
2021-09-27 11:04:01+00:00,158.0,14.52,160.0,18.44,12.41,47.59359,-54.27349
2021-09-27 11:14:01+00:00,166.0,12.17,160.0,15.02,12.41,47.59359,-54.27349
2021-09-27 11:24:01+00:00,162.0,13.97,161.0,16.14,12.41,47.59359,-54.27349
2021-09-27 11:34:01+00:00,173.0,11.85,174.0,16.86,12.41,47.59359,-54.27349
2021-09-27 11:44:01+00:00,175.0,12.44,165.0,16.18,12.41,47.59359,-54.27349
2021-09-27 11:54:01+00:00,181.0,13.38,173.0,15.12,12.41,47.59359,-54.27349
2021-09-27 12:04:01+00:00,196.0,12.33,194.0,14.27,12.41,47.59359,-54.27349
2021-09-27 12:14:01+00:00,187.0,12.36,184.0,14.36,12.49,47.59359,-54.27349
2021-09-27 12:24:01+00:00,198.0,13.06,197.0,14.61,12.49,47.59359,-54.27349
2021-09-27 12:34:01+00:00,198.0,12.93,202.0,14.94,12.49,47.59359,-54.27349
2021-09-27 12:44:01+00:00,204.0,12.15,204.0,13.97,12.49,47.59359,-54.27349
2021-09-27 12:54:01+00:00,210.0,10.51,212.0,12.14,12.49,47.59359,-54.27349
2021-09-27 13:04:01+00:00,210.0,10.85,209.0,12.17,12.49,47.59359,-54.27349
2021-09-27 13:14:01+00:00,216.0,10.13,218.0,11.65,12.89,47.59359,-54.27349
2021-09-27 13:24:01+00:00,210.0,10.23,210.0,11.88,12.89,47.59359,-54.27349
2021-09-27 13:34:01+00:00,213.0,11.05,210.0,12.53,12.89,47.59359,-54.27349
2021-09-27 13:44:01+00:00,214.0,9.0,218.0,10.14,12.89,47.59359,-54.27349
2021-09-27 13:54:01+00:00,218.0,10.71,223.0,12.29,12.89,47.59359,-54.27349
2021-09-27 14:04:01+00:00,221.0,8.69,221.0,9.55,12.89,47.59359,-54.27349
2021-09-27 14:14:01+00:00,219.0,8.54,222.0,9.35,13.53,47.59359,-54.27349
2021-09-27 14:24:01+00:00,218.0,7.42,219.0,8.07,13.53,47.59359,-54.27349
2021-09-27 14:34:01+00:00,219.0,7.66,221.0,8.79,13.53,47.59359,-54.27349
2021-09-27 14:44:01+00:00,218.0,8.08,224.0,9.28,13.53,47.59359,-54.27349
2021-09-27 14:54:01+00:00,217.0,7.35,218.0,8.12,13.53,47.59359,-54.27349
2021-09-27 15:04:01+00:00,218.0,7.47,219.0,8.55,13.53,47.59359,-54.27349
2021-09-27 15:14:01+00:00,216.0,7.06,220.0,7.58,13.76,47.59359,-54.27349
2021-09-27 15:24:01+00:00,221.0,5.31,232.0,6.16,13.76,47.59359,-54.27349
2021-09-27 15:34:01+00:00,221.0,5.81,214.0,7.09,13.76,47.59359,-54.27349
2021-09-27 15:44:01+00:00,224.0,5.56,217.0,6.91,13.76,47.59359,-54.27349
2021-09-27 15:54:01+00:00,210.0,7.19,216.0,8.27,13.76,47.59359,-54.27349
2021-09-27 16:04:01+00:00,214.0,8.44,210.0,9.87,13.76,47.59359,-54.27349
2021-09-27 16:14:01+00:00,208.0,7.17,210.0,8.2,13.92,47.59359,-54.27349
2021-09-27 16:24:01+00:00,208.0,8.8,214.0,10.02,13.92,47.59359,-54.27349
2021-09-27 16:34:01+00:00,214.0,8.23,216.0,8.99,13.92,47.59359,-54.27349
2021-09-27 16:44:01+00:00,209.0,6.76,213.0,7.77,13.92,47.59359,-54.27349
2021-09-27 16:54:01+00:00,213.0,8.43,212.0,9.6,13.92,47.59359,-54.27349
2021-09-27 17:04:01+00:00,221.0,7.33,223.0,8.21,13.92,47.59359,-54.27349
2021-09-27 17:14:01+00:00,221.0,8.1,226.0,9.92,13.76,47.59359,-54.27349
2021-09-27 17:24:01+00:00,222.0,7.5,226.0,8.51,13.76,47.59359,-54.27349
2021-09-27 17:34:01+00:00,214.0,7.16,217.0,8.35,13.76,47.59359,-54.27349
2021-09-27 17:44:01+00:00,215.0,6.55,216.0,7.43,13.76,47.59359,-54.27349
2021-09-27 17:54:01+00:00,212.0,6.01,219.0,7.4,13.76,47.59359,-54.27349
2021-09-27 18:04:01+00:00,214.0,7.41,212.0,8.2,13.76,47.59359,-54.27349
2021-09-27 18:14:01+00:00,215.0,7.69,218.0,8.64,13.84,47.59359,-54.27349
2021-09-27 18:24:01+00:00,211.0,7.26,214.0,8.38,13.84,47.59359,-54.27349
2021-09-27 18:34:01+00:00,208.0,7.08,210.0,7.72,13.84,47.59359,-54.27349
2021-09-27 18:44:01+00:00,200.0,6.94,202.0,7.78,13.84,47.59359,-54.27349
2021-09-27 18:54:01+00:00,200.0,7.65,200.0,8.39,13.84,47.59359,-54.27349
2021-09-27 19:04:01+00:00,199.0,8.33,197.0,9.34,13.84,47.59359,-54.27349
2021-09-27 19:14:01+00:00,206.0,7.7,207.0,8.63,13.6,47.59359,-54.27349
2021-09-27 19:24:01+00:00,208.0,8.0,210.0,8.7,13.6,47.59359,-54.27349
2021-09-27 19:34:01+00:00,207.0,7.17,215.0,7.98,13.6,47.59359,-54.27349
2021-09-27 19:44:01+00:00,206.0,6.81,205.0,7.99,13.6,47.59359,-54.27349
2021-09-27 19:54:01+00:00,213.0,8.47,211.0,9.78,13.6,47.59359,-54.27349
2021-09-27 20:04:01+00:00,213.0,8.38,215.0,9.56,13.6,47.59359,-54.27349
2021-09-27 20:14:01+00:00,211.0,7.87,209.0,9.4,13.29,47.59359,-54.27349
2021-09-27 20:24:01+00:00,207.0,7.48,206.0,8.73,13.29,47.59359,-54.27349
2021-09-27 20:34:01+00:00,215.0,7.57,227.0,8.32,13.29,47.59359,-54.27349
2021-09-27 20:44:01+00:00,220.0,7.74,224.0,8.88,13.29,47.59359,-54.27349
2021-09-27 20:54:01+00:00,240.0,8.81,237.0,9.73,13.29,47.59359,-54.27349
2021-09-27 21:04:01+00:00,253.0,6.16,252.0,6.96,13.29,47.59359,-54.27349
2021-09-27 21:14:01+00:00,238.0,5.18,244.0,5.8,13.21,47.59359,-54.27349
2021-09-27 21:24:01+00:00,227.0,7.31,236.0,8.95,13.21,47.59359,-54.27349
2021-09-27 21:34:01+00:00,233.0,6.58,240.0,7.68,13.21,47.59359,-54.27349
2021-09-27 21:44:01+00:00,230.0,7.95,233.0,9.0,13.21,47.59359,-54.27349
2021-09-27 21:54:01+00:00,234.0,6.81,235.0,7.65,13.21,47.59359,-54.27349
2021-09-27 22:04:01+00:00,251.0,7.71,248.0,8.19,13.21,47.59359,-54.27349
2021-09-27 22:14:01+00:00,255.0,7.97,256.0,8.74,12.73,47.59359,-54.27349
2021-09-27 22:24:01+00:00,260.0,7.71,257.0,8.45,12.73,47.59359,-54.27349
2021-09-27 22:34:01+00:00,267.0,7.87,272.0,9.0,12.73,47.59359,-54.27349
2021-09-27 22:44:01+00:00,266.0,8.13,268.0,9.14,12.73,47.59359,-54.27349
2021-09-27 22:54:01+00:00,269.0,8.71,276.0,9.7,12.73,47.59359,-54.27349
2021-09-27 23:04:01+00:00,269.0,7.99,267.0,9.61,12.73,47.59359,-54.27349
2021-09-27 23:14:01+00:00,269.0,8.37,272.0,9.45,12.65,47.59359,-54.27349
2021-09-27 23:24:01+00:00,261.0,7.12,265.0,9.04,12.65,47.59359,-54.27349
2021-09-27 23:34:01+00:00,260.0,7.12,259.0,8.32,12.65,47.59359,-54.27349
2021-09-27 23:44:01+00:00,255.0,7.84,258.0,8.89,12.65,47.59359,-54.27349
2021-09-27 23:54:01+00:00,255.0,8.88,254.0,9.65,12.65,47.59359,-54.27349
